Flag for South Africa Weather past 2 weeks in Stellenbosch, South Africa

Now
55 °F

Clear.


Feels Like: 52 °F
Forecast: 38 / 65 °F
Wind: 12 mph from South

Location: Cape Town International Airport

Current Time: Jul 2, 2015 at 7:36:48 PM

Latest Report: Jul 2, 2015 at 7:00 PM


Visibility: 10 mi

Pressure: 30.18 "Hg

Humidity: 72%

Dew point: 46 °F

Location of StellenboschLocation

Historic Weather in Stellenbosch — Graph

°F

Stellenbosch temperature yesterday

Maximum temperature yesterday: 61 °F (at 12:00 PM)
Minimum temperature yesterday: 52 °F (at 8:00 AM)
Average temperature yesterday: 56 °F

Past Weeks' High & Low Weather Summary

 TemperatureHumidityPressure
High72 °F (Jun 20, 1:00 PM)100% (Jun 17, 11:00 PM)30.48 "Hg (Jun 17, 11:00 PM)
Low41 °F (Jun 20, 5:00 AM)41% (Jun 20, 1:00 PM)29.86 "Hg (Jun 23, 9:00 PM)
Average53 °F86%30.22 "Hg
* Reported Jun 17 6:00 PM — Jul 2 6:00 PM, Stellenbosch, Weather by CustomWeather, © 2015

Note: Actual official high and low records may vary slightly from our data, if they occured in-between our weather recording intervals... More about our weather records

Advertising

Stellenbosch weather history for previous 24 hours

 ConditionsComfort  
Time TempWeatherWind HumidityBarometerVisibility
6:00 PM
Thu, Jul 2
57 °FClear.6 mph72%30.18 "Hg10 mi
5:00 PM61 °FClear.13 mph63%30.15 "Hg10 mi
4:00 PM63 °FSunny.9 mph52%30.18 "Hg10 mi
3:00 PM63 °FPassing clouds.7 mph52%30.18 "HgN/A
2:00 PM63 °FPassing clouds.10 mph59%30.18 "HgN/A
1:00 PM61 °FSunny.10 mph63%30.21 "Hg10 mi
12:00 PM61 °FPassing clouds.8 mph68%30.24 "HgN/A
11:00 AM57 °FPassing clouds.3 mph82%30.27 "HgN/A
10:00 AM54 °FPassing clouds.3 mph88%30.27 "HgN/A
9:00 AM48 °FSunny.3 mph94%30.24 "Hg10 mi
8:00 AM43 °FPassing clouds.6 mph93%30.24 "HgN/A
7:00 AM46 °FPassing clouds.3 mph87%30.21 "HgN/A
6:00 AM48 °FPassing clouds.3 mph94%30.21 "HgN/A
5:00 AM46 °FClear.5 mph93%30.21 "Hg10 mi
4:00 AM50 °FClear.5 mph88%30.24 "Hg10 mi
3:00 AM50 °FPassing clouds.7 mph100%30.24 "HgN/A
2:00 AM50 °FClear.8 mph94%30.24 "Hg10 mi
1:00 AM52 °FClear.8 mph94%30.27 "Hg10 mi
12:00 AM52 °FClear.7 mph94%30.27 "Hg10 mi
11:00 PM
Wed, Jul 1
52 °FClear.9 mph94%30.27 "Hg10 mi
10:00 PM52 °FPassing clouds.7 mph94%30.27 "HgN/A
9:00 PM54 °FClear.7 mph94%30.27 "Hg10 mi
8:00 PM54 °FClear.7 mph94%30.27 "Hg10 mi
7:00 PM55 °FPassing clouds.8 mph88%30.27 "HgN/A
Weather by CustomWeather, © 2015

See weather overviewHow to use our weather pages